| time (UTC) | temp F | wind direction | speed knots | gust knots | rain 1hr in | rain 24hr in | rain mn in | humidity % | barometer mb |
| 20260504043036 | 53 | 250 | 0.0 | 0.0 | 0.00 | 0.00 | 0.00 | 36 | 1011.7 |
| 20260504043009 | 53 | 110 | 0.0 | 2.6 | 0.00 | 0.00 | 0.00 | 45 | 1013.6 |
| 20260504041535 | 54 | 226 | 0.0 | 0.0 | 0.00 | 0.00 | 0.00 | 35 | 1011.5 |
| 20260504041502 | 53 | 71 | 0.9 | 3.5 | 0.00 | 0.00 | 0.00 | 44 | 1013.4 |
| 20260504040108 | 53 | 79 | 0.9 | 2.6 | 0.00 | 0.00 | 0.00 | 44 | 1013.3 |
| 20260504040044 | 54 | 245 | 0.0 | 0.0 | 0.00 | 0.00 | 0.00 | 35 | 1011.5 |
| 20260504034614 | 54 | 337 | 0.0 | 2.6 | 0.00 | 0.00 | 0.00 | 43 | 1013.3 |
| 20260504034533 | 54 | 243 | 0.0 | 0.0 | 0.00 | 0.00 | 0.01 | 34 | 1011.4 |
| 20260504033101 | 54 | 76 | 1.7 | 4.3 | 0.00 | 0.00 | 0.00 | 42 | 1013.3 |
| 20260504033033 | 54 | 249 | 0.0 | 0.0 | 0.00 | 0.00 | 0.01 | 33 | 1011.4 |
| 20260504031608 | 54 | 118 | 0.9 | 2.6 | 0.00 | 0.00 | 0.00 | 41 | 1013.2 |
| 20260504031532 | 55 | 248 | 0.0 | 0.0 | 0.00 | 0.00 | 0.01 | 32 | 1011.3 |
| 20260504030113 | 55 | 98 | 0.0 | 4.3 | 0.00 | 0.00 | 0.00 | 40 | 1013.1 |
| 20260504030031 | 55 | 228 | 0.0 | 0.0 | 0.00 | 0.00 | 0.01 | 31 | 1011.3 |
| 20260504024554 | 55 | 207 | 1.7 | 2.6 | 0.00 | 0.00 | 0.00 | 39 | 1013.1 |
| 20260504024532 | 56 | 241 | 0.0 | 0.0 | 0.00 | 0.00 | 0.01 | 30 | 1011.2 |
| 20260504023055 | 55 | 55 | 0.0 | 0.0 | 0.00 | 0.00 | 0.00 | 39 | 1013.2 |
| 20260504023030 | 56 | 227 | 0.0 | 0.0 | 0.00 | 0.00 | 0.01 | 29 | 1011.3 |
| 20260504021603 | 56 | 66 | 0.0 | 0.9 | 0.00 | 0.00 | 0.00 | 37 | 1013.2 |
| 20260504021530 | 56 | 231 | 0.0 | 0.0 | 0.00 | 0.00 | 0.01 | 28 | 1011.3 |
| 20260504020053 | 56 | 105 | 0.0 | 1.7 | 0.00 | 0.00 | 0.00 | 37 | 1013.2 |
| 20260504020031 | 57 | 244 | 0.0 | 0.0 | 0.00 | 0.00 | 0.01 | 28 | 1011.3 |
| 20260504014552 | 56 | 84 | 0.0 | 1.7 | 0.00 | 0.00 | 0.00 | 36 | 1013.1 |
| 20260504014530 | 56 | 274 | 0.0 | 0.0 | 0.00 | 0.00 | 0.01 | 28 | 1011.2 |
| 20260504013052 | 56 | 108 | 0.0 | 0.0 | 0.00 | 0.00 | 0.00 | 36 | 1012.9 |
| 20260504013036 | 56 | 235 | 0.0 | 0.0 | 0.00 | 0.00 | 0.01 | 28 | 1011.1 |
| 20260504011552 | 57 | 112 | 0.0 | 0.0 | 0.00 | 0.00 | 0.00 | 35 | 1012.8 |
| 20260504011528 | 57 | 233 | 0.0 | 0.0 | 0.00 | 0.00 | 0.01 | 27 | 1011.0 |
| 20260504010051 | 57 | 84 | 0.0 | 0.0 | 0.00 | 0.00 | 0.00 | 34 | 1012.6 |
| 20260504010027 | 57 | 215 | 0.0 | 0.0 | 0.00 | 0.00 | 0.01 | 26 | 1010.8 |
| 20260504004551 | 57 | 80 | 0.0 | 1.7 | 0.00 | 0.00 | 0.00 | 33 | 1012.5 |
| 20260504004527 | 57 | 217 | 0.0 | 0.0 | 0.00 | 0.00 | 0.01 | 25 | 1010.7 |
| 20260504003050 | 58 | 91 | 0.0 | 0.0 | 0.00 | 0.00 | 0.00 | 33 | 1012.3 |
| 20260504003026 | 58 | 269 | 0.0 | 0.0 | 0.00 | 0.00 | 0.01 | 25 | 1010.4 |
| 20260504001551 | 58 | 87 | 0.0 | 0.0 | 0.00 | 0.00 | 0.00 | 31 | 1012.0 |
| 20260504001526 | 58 | 233 | 0.0 | 0.0 | 0.00 | 0.00 | 0.01 | 24 | 1010.2 |
| 20260504000120 | 59 | 120 | 0.0 | 0.0 | 0.00 | 0.00 | 0.00 | 31 | 1011.8 |
| 20260504000025 | 59 | 248 | 0.0 | 0.0 | 0.00 | 0.00 | 0.01 | 24 | 1010.0 |
| 20260503234549 | 59 | 126 | 0.0 | 3.5 | 0.00 | 0.00 | 0.00 | 30 | 1011.6 |
| 20260503234527 | 59 | 281 | 0.0 | 0.0 | 0.00 | 0.00 | 0.01 | 23 | 1009.7 |
| 20260503233049 | 60 | 127 | 1.7 | 7.0 | 0.00 | 0.00 | 0.00 | 29 | 1011.4 |
| 20260503233024 | 60 | 308 | 0.0 | 0.0 | 0.00 | 0.00 | 0.01 | 22 | 1009.6 |
| 20260503231548 | 60 | 120 | 1.7 | 6.1 | 0.00 | 0.00 | 0.00 | 29 | 1011.4 |
| 20260503231524 | 60 | 304 | 0.0 | 0.0 | 0.00 | 0.00 | 0.01 | 22 | 1009.5 |
| 20260503230054 | 60 | 120 | 1.7 | 6.1 | 0.00 | 0.00 | 0.00 | 28 | 1011.2 |
| 20260503230029 | 60 | 322 | 0.0 | 0.0 | 0.00 | 0.00 | 0.01 | 21 | 1009.4 |
| 20260503224546 | 60 | 124 | 0.9 | 4.3 | 0.00 | 0.00 | 0.00 | 28 | 1011.1 |
| 20260503224523 | 60 | 311 | 0.0 | 0.0 | 0.00 | 0.00 | 0.01 | 21 | 1009.3 |
| 20260503223046 | 60 | 117 | 1.7 | 5.2 | 0.00 | 0.00 | 0.00 | 27 | 1011.2 |
| 20260503223022 | 60 | 325 | 0.0 | 0.0 | 0.00 | 0.00 | 0.01 | 21 | 1009.4 |
| 20260503221545 | 61 | 158 | 2.6 | 8.7 | 0.00 | 0.00 | 0.00 | 27 | 1011.1 |
| 20260503221522 | 60 | 260 | 0.0 | 0.0 | 0.00 | 0.00 | 0.01 | 20 | 1009.2 |
| 20260503220044 | 60 | 113 | 2.6 | 9.6 | 0.00 | 0.00 | 0.00 | 26 | 1011.1 |
| 20260503220022 | 60 | 357 | 0.0 | 0.0 | 0.00 | 0.00 | 0.01 | 20 | 1009.3 |
| 20260503214543 | 61 | 219 | 3.5 | 7.8 | 0.00 | 0.00 | 0.00 | 26 | 1011.3 |
| 20260503214522 | 60 | 323 | 0.0 | 0.0 | 0.00 | 0.00 | 0.01 | 20 | 1009.4 |
| 20260503213042 | 60 | 150 | 2.6 | 8.7 | 0.00 | 0.00 | 0.00 | 26 | 1011.2 |
| 20260503213021 | 60 | 212 | 0.0 | 0.0 | 0.00 | 0.00 | 0.01 | 20 | 1009.2 |
| 20260503211543 | 60 | 134 | 4.3 | 8.7 | 0.00 | 0.00 | 0.00 | 26 | 1011.0 |
| 20260503211532 | 60 | 332 | 0.0 | 0.0 | 0.00 | 0.00 | 0.01 | 20 | 1009.2 |
| 20260503210041 | 60 | 146 | 1.7 | 6.1 | 0.00 | 0.00 | 0.00 | 27 | 1011.0 |
| 20260503210020 | 60 | 332 | 0.0 | 0.0 | 0.00 | 0.00 | 0.01 | 21 | 1009.1 |
| 20260503204540 | 60 | 104 | 1.7 | 7.8 | 0.00 | 0.00 | 0.00 | 28 | 1010.9 |
| 20260503204519 | 60 | 298 | 0.0 | 0.0 | 0.00 | 0.00 | 0.01 | 22 | 1009.1 |
| 20260503203042 | 60 | 159 | 2.6 | 6.1 | 0.00 | 0.00 | 0.00 | 28 | 1011.2 |
| 20260503203018 | 60 | 320 | 0.0 | 0.0 | 0.00 | 0.00 | 0.01 | 21 | 1009.2 |
| 20260503201537 | 60 | 145 | 2.6 | 6.1 | 0.00 | 0.00 | 0.00 | 28 | 1011.1 |
| 20260503201517 | 60 | 310 | 0.0 | 0.0 | 0.00 | 0.00 | 0.01 | 21 | 1009.5 |
| 20260503200036 | 60 | 124 | 1.7 | 8.7 | 0.00 | 0.00 | 0.00 | 28 | 1011.3 |
| 20260503200016 | 59 | 305 | 0.0 | 0.0 | 0.00 | 0.00 | 0.01 | 22 | 1009.5 |
| 20260503194536 | 60 | 255 | 1.7 | 7.8 | 0.00 | 0.00 | 0.00 | 29 | 1011.5 |
| 20260503194514 | 59 | 248 | 0.0 | 0.0 | 0.00 | 0.00 | 0.01 | 22 | 1009.6 |
| 20260503193033 | 59 | 120 | 2.6 | 7.0 | 0.00 | 0.00 | 0.00 | 30 | 1011.6 |
| 20260503193013 | 58 | 338 | 0.0 | 0.0 | 0.00 | 0.00 | 0.01 | 23 | 1009.7 |
| 20260503191531 | 58 | 127 | 5.2 | 9.6 | 0.00 | 0.00 | 0.00 | 30 | 1011.8 |
| 20260503191513 | 58 | 351 | 0.0 | 0.0 | 0.00 | 0.00 | 0.01 | 23 | 1009.8 |
| 20260503190034 | 59 | 320 | 0.0 | 0.0 | 0.00 | 0.00 | 0.01 | 23 | 1010.1 |
| 20260503190032 | 59 | 169 | 3.5 | 8.7 | 0.00 | 0.00 | 0.00 | 30 | 1011.9 |
| 20260503184536 | 58 | 110 | 3.5 | 8.7 | 0.00 | 0.00 | 0.00 | 31 | 1012.0 |
| 20260503184512 | 59 | 295 | 0.0 | 0.0 | 0.00 | 0.00 | 0.01 | 23 | 1010.1 |
| 20260503183027 | 58 | 131 | 4.3 | 10.4 | 0.00 | 0.00 | 0.00 | 31 | 1011.9 |
| 20260503183015 | 58 | 1 | 0.0 | 0.0 | 0.00 | 0.00 | 0.01 | 24 | 1010.3 |
| 20260503181525 | 57 | 108 | 1.7 | 6.1 | 0.00 | 0.00 | 0.00 | 35 | 1012.1 |
| 20260503181508 | 57 | 57 | 0.0 | 0.0 | 0.00 | 0.00 | 0.01 | 26 | 1010.2 |
| 20260503180024 | 56 | 112 | 1.7 | 9.6 | 0.00 | 0.00 | 0.00 | 36 | 1012.3 |
| 20260503180011 | 56 | 332 | 0.0 | 0.0 | 0.00 | 0.00 | 0.01 | 28 | 1010.3 |
| 20260503174528 | 55 | 155 | 2.6 | 9.6 | 0.00 | 0.00 | 0.00 | 36 | 1012.4 |
| 20260503174506 | 56 | 297 | 0.0 | 0.0 | 0.00 | 0.00 | 0.01 | 28 | 1010.6 |
| 20260503173024 | 54 | 177 | 3.5 | 8.7 | 0.00 | 0.00 | 0.00 | 37 | 1012.5 |
| 20260503173004 | 55 | 309 | 0.0 | 0.0 | 0.00 | 0.00 | 0.01 | 28 | 1010.7 |
| 20260503171518 | 54 | 125 | 4.3 | 10.4 | 0.00 | 0.00 | 0.00 | 37 | 1012.6 |
| 20260503171503 | 55 | 309 | 0.0 | 0.0 | 0.00 | 0.00 | 0.01 | 28 | 1010.7 |
| 20260503150111 | 52 | 333 | 0.0 | 0.0 | 0.00 | 0.00 | 0.00 | 27 | 1011.0 |
| 20260503140104 | 52 | 308 | 0.0 | 0.0 | 0.00 | 0.00 | 0.00 | 36 | 1011.1 |
| 20260503081541 | 47 | 352 | 0.0 | 0.0 | 0.00 | 0.00 | 0.00 | 44 | 1009.5 |
| 20260503081529 | 47 | 108 | 0.0 | 2.6 | 0.00 | 0.03 | 0.00 | 53 | 1011.3 |
| 20260503071530 | 48 | 342 | 0.0 | 0.0 | 0.00 | 0.00 | 0.00 | 41 | 1009.4 |
| 20260503071522 | 47 | 110 | 0.0 | 1.7 | 0.00 | 0.03 | 0.00 | 50 | 1011.2 |
| 20260503054525 | 50 | 22 | 0.0 | 0.0 | 0.00 | 0.00 | 0.00 | 36 | 1009.6 |
| 20260503054520 | 50 | 114 | 0.0 | 3.5 | 0.00 | 0.03 | 0.00 | 44 | 1011.5 |
| 20260503053021 | 50 | 330 | 0.0 | 0.0 | 0.00 | 0.00 | 0.00 | 34 | 1009.7 |
| 20260503053005 | 50 | 105 | 0.9 | 4.3 | 0.00 | 0.03 | 0.00 | 43 | 1011.5 |
| 20260503051517 | 51 | 17 | 0.0 | 0.0 | 0.00 | 0.00 | 0.00 | 34 | 1010.0 |
| 20260503051502 | 50 | 115 | 0.9 | 3.5 | 0.00 | 0.03 | 0.00 | 43 | 1011.9 |
| 20260503050100 | 51 | 146 | 0.9 | 4.3 | 0.00 | 0.03 | 0.00 | 42 | 1012.0 |
| 20260503050016 | 51 | 356 | 0.0 | 0.0 | 0.00 | 0.00 | 0.00 | 33 | 1010.1 |
| 20260503044559 | 51 | 127 | 0.0 | 6.1 | 0.00 | 0.03 | 0.00 | 42 | 1012.0 |
| 20260503044515 | 51 | 328 | 0.0 | 0.0 | 0.00 | 0.00 | 0.00 | 33 | 1010.1 |